McGuire AFB, NJ

2:50 PM EDT on May 23, 2018 (GMT -0400)
McGuire Air Force Base

Weather History for KWRI - January, 2014

Change the Weather History Date:

Tuesday, January 14, 2014

  Actual Average Record
Temperature  
Mean Temperature 44 °F -  
Max Temperature 50 °F 36 °F 66 °F (2005)
Min Temperature 39 °F 21 °F 10 °F (2004)
Degree Days  
Heating Degree Days 20    
Moisture  
Dew Point 44 °F    
Average Humidity 97    
Maximum Humidity 100    
Minimum Humidity 66    
Precipitation  
Precipitation 0.29 in - - ()
Sea Level Pressure  
Sea Level Pressure 29.78 in    
Wind  
Wind Speed 7 mph (SW)    
Max Wind Speed 12 mph    
Max Gust Speed -    
Visibility 7 miles    
Events Rain    
Averages and records for this station are not official NWS values.
T = Trace of Precipitation, MM = Missing Value Source: NWS Daily Summary

Daily Weather History Graph

Daily Weather History Graph

Search for Another Location

Airport or City:

Astronomy

Jan. 14, 2014 Rise Set
Actual Time 7:18 AM EST 4:56 PM EST
Civil Twilight 6:48 AM EST 5:26 PM EST
Nautical Twilight 6:15 AM EST 5:59 PM EST
Astronomical Twilight 5:43 AM EST 6:32 PM EST
Moon 3:59 PM EST (1/14) 5:51 AM EST (1/14)
Length of Visible Light 10h 37m
Length of Day
9h 37m
Waxing Gibbous, 98% of the Moon is Illuminated
Jan 14
Waxing Gibbous
Jan 15
Full
Jan 24
Last Quarter
Jan 30
New
Feb 6
First Quarter

Hourly Weather History & Observations

Time (EST) Temp. Windchill Dew Point Humidity Pressure Visibility Wind Dir Wind Speed Gust Speed Precip Events Conditions
12:58 AM 46.0 °F 41.9 °F 38.8 °F 76% 29.87 in 10.0 mi South 8.1 mph - N/A   Overcast
1:58 AM 47.3 °F - 39.4 °F 74% 29.86 in 10.0 mi South 11.5 mph - N/A   Mostly Cloudy
2:58 AM 48.2 °F - 39.2 °F 71% 29.85 in 10.0 mi South 9.2 mph - N/A   Clear
3:58 AM 48.6 °F - 39.2 °F 70% 29.84 in 10.0 mi SSW 9.2 mph - 0.00 in Rain Light Rain
4:12 AM 50.0 °F - 39.2 °F 66% 29.83 in 10.0 mi South 9.2 mph - N/A   Clear
4:26 AM 50.0 °F - 39.2 °F 66% 29.84 in 10.0 mi SSW 8.1 mph - N/A Rain Light Rain
4:58 AM 48.2 °F - 41.0 °F 76% 29.83 in 10.0 mi SW 9.2 mph - 0.00 in Rain Light Rain
5:27 AM 46.4 °F 43.5 °F 42.8 °F 87% 29.81 in 10.0 mi South 5.8 mph - N/A   Mostly Cloudy
5:58 AM 46.0 °F 42.5 °F 42.6 °F 88% 29.81 in 10.0 mi SSE 6.9 mph - 0.00 in   Overcast
6:20 AM 46.4 °F 41.9 °F 42.8 °F 87% 29.82 in 10.0 mi SSW 9.2 mph - N/A Rain Light Rain
6:56 AM 46.4 °F 42.4 °F 44.6 °F 93% 29.82 in 9.0 mi South 8.1 mph - N/A Rain Light Rain
6:58 AM 46.8 °F - 44.1 °F 90% 29.83 in 9.0 mi South 8.1 mph - 0.02 in Rain Light Rain
7:07 AM 46.4 °F 42.4 °F 44.6 °F 93% 29.81 in 10.0 mi South 8.1 mph - N/A Rain Light Rain
7:58 AM 46.9 °F - 46.2 °F 97% 29.81 in 10.0 mi South 9.2 mph - 0.03 in Rain Light Rain
8:10 AM 46.4 °F 41.5 °F 46.4 °F 100% 29.80 in 10.0 mi South 10.4 mph - N/A   Overcast
8:40 AM 46.4 °F 42.4 °F 46.4 °F 100% 29.80 in 10.0 mi SSE 8.1 mph - N/A Rain Light Rain
8:48 AM 46.4 °F 42.4 °F 46.4 °F 100% 29.79 in 10.0 mi SSE 8.1 mph - N/A   Overcast
8:58 AM 46.8 °F - 46.2 °F 98% 29.79 in 10.0 mi SSE 6.9 mph - 0.00 in   Overcast
9:31 AM 46.4 °F 43.5 °F 46.4 °F 100% 29.77 in 10.0 mi SSE 5.8 mph - N/A   Overcast
9:58 AM 47.5 °F - 47.3 °F 99% 29.77 in 10.0 mi South 5.8 mph - N/A   Overcast
10:24 AM 48.2 °F - 48.2 °F 100% 29.77 in 10.0 mi South 5.8 mph - N/A Rain Light Rain
10:47 AM 48.2 °F - 48.2 °F 100% 29.76 in 10.0 mi South 6.9 mph - N/A   Overcast
10:53 AM 48.2 °F - 48.2 °F 100% 29.76 in 10.0 mi SSW 5.8 mph - N/A   Overcast
10:56 AM 48.2 °F - 48.2 °F 100% 29.75 in 10.0 mi SSW 5.8 mph - N/A   Overcast
10:58 AM 48.2 °F - 48.2 °F 100% 29.76 in 10.0 mi South 6.9 mph - 0.00 in   Overcast
11:06 AM 48.2 °F - 48.2 °F 100% 29.75 in 10.0 mi South 6.9 mph - N/A Rain Light Rain
11:15 AM 48.2 °F - 48.2 °F 100% 29.75 in 10.0 mi South 8.1 mph - N/A   Overcast
11:17 AM 48.2 °F - 48.2 °F 100% 29.75 in 10.0 mi SSW 10.4 mph - N/A   Overcast
11:23 AM 48.2 °F - 48.2 °F 100% 29.75 in 10.0 mi SSW 9.2 mph - N/A   Overcast
11:38 AM 48.2 °F - 48.2 °F 100% 29.73 in 10.0 mi SW 9.2 mph - N/A   Overcast
11:39 AM 48.2 °F - 48.2 °F 100% 29.73 in 10.0 mi SW 8.1 mph - N/A Rain Light Rain
11:45 AM 48.2 °F - 48.2 °F 100% 29.73 in 10.0 mi SW 6.9 mph - N/A Rain Light Rain
11:58 AM 48.9 °F - 48.6 °F 99% 29.73 in 8.0 mi WSW 5.8 mph - 0.01 in Rain Light Rain
12:27 PM 48.2 °F - 48.2 °F 100% 29.71 in 10.0 mi SSW 5.8 mph - N/A   Overcast
12:29 PM 48.2 °F - 48.2 °F 100% 29.71 in 10.0 mi SW 4.6 mph - N/A Rain Light Rain
12:35 PM 48.2 °F - 48.2 °F 100% 29.70 in 8.0 mi SSW 2.3 mph - N/A Rain Light Rain
12:58 PM 48.9 °F - 48.7 °F 99% 29.70 in 6.0 mi WSW 2.3 mph - 0.02 in Rain Light Rain
1:13 PM 48.2 °F - 48.2 °F 100% 29.68 in 6.0 mi SW 4.6 mph - N/A Rain Light Rain
1:25 PM 48.2 °F - 48.2 °F 100% 29.67 in 3.0 mi West 2.3 mph - N/A Rain Light Rain
1:28 PM 48.2 °F - 48.2 °F 100% 29.67 in 4.0 mi WSW 3.5 mph - N/A Rain Light Rain
1:52 PM 48.2 °F - 48.2 °F 100% 29.67 in 4.0 mi West 4.6 mph - N/A Rain Light Rain
1:55 PM 48.2 °F - 48.2 °F 100% 29.66 in 4.0 mi West 5.8 mph - N/A Rain Light Rain
1:58 PM 48.2 °F - 48.2 °F 100% 29.68 in 5.0 mi West 5.8 mph - 0.06 in Rain Light Rain
2:01 PM 48.2 °F - 48.2 °F 100% 29.67 in 5.0 mi West 5.8 mph - N/A Rain Light Rain
2:04 PM 48.2 °F - 48.2 °F 100% 29.68 in 6.0 mi West 5.8 mph - N/A Rain Light Rain
2:10 PM 48.2 °F - 48.2 °F 100% 29.67 in 5.0 mi West 6.9 mph - N/A Rain Rain
2:13 PM 48.2 °F - 48.2 °F 100% 29.67 in 4.0 mi West 6.9 mph - N/A Rain Rain
2:19 PM 48.2 °F - 48.2 °F 100% 29.68 in 4.0 mi West 8.1 mph - N/A Rain Rain
2:25 PM 48.2 °F - 48.2 °F 100% 29.67 in 4.0 mi West 9.2 mph - N/A Rain Rain
2:28 PM 48.2 °F - 48.2 °F 100% 29.67 in 4.0 mi West 9.2 mph - N/A Rain Rain
2:31 PM 48.2 °F - 48.2 °F 100% 29.68 in 4.0 mi West 8.1 mph - N/A Rain Rain
2:43 PM 48.2 °F - 48.2 °F 100% 29.67 in 6.0 mi West 9.2 mph - N/A Rain Light Rain
2:58 PM 47.7 °F - 47.5 °F 99% 29.69 in 5.0 mi WNW 9.2 mph - 0.07 in Rain Rain
3:25 PM 46.4 °F 41.1 °F 46.4 °F 100% 29.69 in 10.0 mi West 11.5 mph - N/A Rain Light Rain
3:46 PM 46.4 °F 41.9 °F 46.4 °F 100% 29.69 in 10.0 mi WNW 9.2 mph - N/A Rain Light Rain
3:55 PM 46.4 °F 41.5 °F 46.4 °F 100% 29.68 in 9.0 mi WNW 10.4 mph - N/A Rain Light Rain
3:58 PM 46.9 °F - 46.8 °F 99% 29.70 in 8.0 mi WNW 8.1 mph - 0.03 in Rain Light Rain
4:10 PM 46.4 °F 41.1 °F 46.4 °F 100% 29.69 in 10.0 mi WNW 11.5 mph - N/A Rain Light Rain
4:13 PM 46.4 °F 41.1 °F 46.4 °F 100% 29.70 in 10.0 mi WNW 11.5 mph - N/A Rain Light Rain
4:58 PM 46.0 °F 42.5 °F 45.3 °F 97% 29.72 in 10.0 mi WNW 6.9 mph - 0.04 in Rain Light Rain
5:18 PM 46.4 °F 43.5 °F 44.6 °F 93% 29.71 in 10.0 mi WNW 5.8 mph - N/A   Mostly Cloudy
5:35 PM 44.6 °F 40.2 °F 44.6 °F 100% 29.71 in 10.0 mi WNW 8.1 mph - N/A Rain Light Rain
5:52 PM 46.4 °F 43.5 °F 44.6 °F 93% 29.72 in 10.0 mi West 5.8 mph - N/A   Overcast
5:58 PM 45.5 °F 44.2 °F 45.0 °F 98% 29.73 in 10.0 mi WNW 3.5 mph - 0.01 in   Overcast
6:58 PM 45.5 °F 42.5 °F 45.1 °F 99% 29.77 in 10.0 mi WSW 5.8 mph - N/A   Mostly Cloudy
6:59 PM 44.6 °F 41.4 °F 44.6 °F 100% 29.76 in 10.0 mi West 5.8 mph - N/A Rain Light Rain
7:16 PM 46.4 °F 42.4 °F 44.6 °F 93% 29.78 in 10.0 mi WSW 8.1 mph - N/A   Scattered Clouds
7:58 PM 45.3 °F 41.1 °F 45.1 °F 99% 29.83 in 10.0 mi WSW 8.1 mph - 0.00 in   Overcast
8:49 PM 42.8 °F 39.3 °F 42.8 °F 100% 29.84 in 9.0 mi SW 5.8 mph - N/A   Partly Cloudy
8:58 PM 42.3 °F 38.6 °F 41.9 °F 99% 29.86 in 7.0 mi SW 5.8 mph - N/A   Clear
9:01 PM 41.0 °F 37.1 °F 41.0 °F 100% 29.84 in 5.0 mi SW 5.8 mph - N/A   Clear
9:04 PM 41.0 °F 37.1 °F 41.0 °F 100% 29.84 in 4.0 mi SW 5.8 mph - N/A   Clear
9:07 PM 41.0 °F 36.4 °F 41.0 °F 100% 29.84 in 3.0 mi SW 6.9 mph - N/A   Clear
9:13 PM 41.0 °F 36.4 °F 41.0 °F 100% 29.84 in 2.5 mi SW 6.9 mph - N/A   Clear
9:19 PM 41.0 °F 35.8 °F 41.0 °F 100% 29.85 in 3.0 mi SW 8.1 mph - N/A   Clear
9:22 PM 41.0 °F 36.4 °F 41.0 °F 100% 29.84 in 4.0 mi SW 6.9 mph - N/A   Clear
9:25 PM 42.8 °F 38.6 °F 41.0 °F 93% 29.84 in 5.0 mi SW 6.9 mph - N/A   Clear
9:28 PM 41.0 °F 35.8 °F 41.0 °F 100% 29.85 in 7.0 mi SW 8.1 mph - N/A   Clear
9:34 PM 42.8 °F 38.6 °F 41.0 °F 93% 29.85 in 7.0 mi SW 6.9 mph - N/A   Clear
9:40 PM 42.8 °F 38.6 °F 41.0 °F 93% 29.85 in 7.0 mi SW 6.9 mph - N/A   Clear
9:43 PM 42.8 °F 39.3 °F 42.8 °F 100% 29.85 in 7.0 mi SW 5.8 mph - N/A   Clear
9:49 PM 41.0 °F 37.1 °F 41.0 °F 100% 29.84 in 7.0 mi SW 5.8 mph - N/A   Clear
9:58 PM 41.5 °F 38.6 °F 41.4 °F 99% 29.86 in 7.0 mi WSW 4.6 mph - N/A   Clear
10:07 PM 41.0 °F 37.1 °F 41.0 °F 100% 29.84 in 6.0 mi WSW 5.8 mph - N/A   Clear
10:28 PM 41.0 °F 37.1 °F 41.0 °F 100% 29.85 in 5.0 mi SW 5.8 mph - N/A   Clear
10:31 PM 39.2 °F 35.0 °F 39.2 °F 100% 29.85 in 3.0 mi WSW 5.8 mph - N/A   Clear
10:37 PM 39.2 °F 35.0 °F 39.2 °F 100% 29.85 in 2.5 mi WSW 5.8 mph - N/A   Clear
10:40 PM 41.0 °F 38.0 °F 39.2 °F 93% 29.84 in 3.0 mi WSW 4.6 mph - N/A   Clear
10:46 PM 41.0 °F 39.0 °F 41.0 °F 100% 29.84 in 4.0 mi West 3.5 mph - N/A   Clear
10:52 PM 41.0 °F 38.0 °F 41.0 °F 100% 29.84 in 4.0 mi West 4.6 mph - N/A   Clear
10:58 PM 40.6 °F 37.5 °F 40.5 °F 99% 29.86 in 3.0 mi West 4.6 mph - N/A   Clear
11:01 PM 41.0 °F 37.1 °F 39.2 °F 93% 29.84 in 2.5 mi WSW 5.8 mph - N/A   Clear
11:10 PM 39.2 °F 35.9 °F 39.2 °F 100% 29.85 in 1.5 mi WSW 4.6 mph - N/A   Clear
11:13 PM 39.2 °F 35.9 °F 39.2 °F 100% 29.85 in 1.2 mi WSW 4.6 mph - N/A   Clear
11:19 PM 39.2 °F 35.9 °F 39.2 °F 100% 29.85 in 1.8 mi West 4.6 mph - N/A   Clear
11:22 PM 39.2 °F 35.9 °F 39.2 °F 100% 29.85 in 3.0 mi West 4.6 mph - N/A   Clear
11:34 PM 39.2 °F 35.0 °F 39.2 °F 100% 29.86 in 4.0 mi West 5.8 mph - N/A   Clear
11:55 PM 41.0 °F 38.0 °F 41.0 °F 100% 29.86 in 5.0 mi WSW 4.6 mph - N/A   Clear
11:58 PM 40.8 °F 38.8 °F 40.6 °F 99% 29.87 in 3.0 mi WSW 3.5 mph - N/A   Clear